Location: Wells
(51.2093°N, 2.6446°W)
Time: 04:52:54
(UTC+00:00)

NOAA 19 - Visible Passes

Search period start: 08 March 2026 00:00
Search period end: 18 March 2026 00:00
Orbit: 838 x 857 km, 99.0° (Epoch: 7 March)

Date Brightness Start Highest point End Pass type
(mag) Time Alt. Az. Time Alt. Az. Time Alt. Az.
8 Mar 6.7 19:49:48 18° ENE 19:50:30 19° NE 19:54:13 10° N visible
8 Mar 5.7 21:31:44 54° N 21:31:44 54° N 21:35:56 10° NNW visible
8 Mar 7.7 23:13:40 15° WNW 23:13:40 15° WNW 23:15:21 10° NW visible
9 Mar 6.9 19:36:47 15° ENE 19:37:57 16° NE 19:41:07 10° NNE visible
9 Mar 5.6 21:18:42 56° NNE 21:18:42 56° NNE 21:23:09 10° NNW visible
9 Mar 7.4 23:00:38 19° WNW 23:00:38 19° WNW 23:03:01 10° NW visible
10 Mar 7.0 19:23:45 12° ENE 19:25:25 13° NE 19:27:53 10° NNE visible
10 Mar 5.6 21:05:40 52° NE 21:05:40 52° NE 21:10:21 10° N visible
10 Mar 7.2 22:47:36 23° WNW 22:47:36 23° WNW 22:50:33 10° NW visible
11 Mar 7.2 19:11:32 10° ENE 19:12:54 11° NE 19:14:17 10° NNE visible
11 Mar 5.7 20:52:39 45° NE 20:52:39 45° NE 20:57:31 10° N visible
11 Mar 6.9 22:34:35 29° WNW 22:34:35 29° WNW 22:38:01 10° NNW visible
12 Mar 5.8 20:39:38 38° ENE 20:39:38 38° ENE 20:44:39 10° N visible
12 Mar 6.5 22:21:33 36° WNW 22:21:33 36° WNW 22:25:25 10° NNW visible
13 Mar 6.1 20:26:36 31° ENE 20:26:57 31° ENE 20:31:45 10° N visible
13 Mar 6.2 22:08:32 44° WNW 22:08:32 44° WNW 22:12:46 10° NNW visible
14 Mar 6.3 20:13:35 25° ENE 20:14:20 26° ENE 20:18:49 10° N visible
14 Mar 5.8 21:55:30 55° NW 21:55:30 55° NW 22:00:04 10° NNW visible
14 Mar 7.9 23:37:26 11° WNW 23:37:26 11° WNW 23:37:51 10° WNW visible
15 Mar 6.5 20:00:33 20° ENE 20:01:44 22° NE 20:05:51 10° N visible
15 Mar 5.4 21:42:29 67° NW 21:42:29 67° NW 21:47:20 10° NNW visible
15 Mar 7.7 23:24:25 14° WNW 23:24:25 14° WNW 23:26:13 10° NW visible
16 Mar 6.7 19:47:31 16° ENE 19:49:09 18° NE 19:52:50 10° N visible
16 Mar 5.2 21:29:27 75° N 21:29:27 75° N 21:34:35 10° NNW visible
16 Mar 7.4 23:11:23 17° WNW 23:11:23 17° WNW 23:14:04 10° NW visible
17 Mar 7.0 19:34:30 13° ENE 19:36:36 15° NE 19:39:42 10° NNE visible
17 Mar 5.2 21:16:26 68° ENE 21:16:26 68° ENE 21:21:47 10° NNW visible
17 Mar 7.2 22:58:21 22° WNW 22:58:21 22° WNW 23:01:43 10° NW visible
